Kearney, NE

12:17 AM CDT on September 19, 2019 (GMT -0500)
Kearney Municipal

Weather History for KEAR - August, 2019

Change the Weather History Date:

Saturday, August 24, 2019

  Actual Average Record
Temperature  
Mean Temperature 68 °F 72 °F  
Max Temperature 75 °F 84 °F 105 °F (1936)
Min Temperature 62 °F 59 °F 39 °F (1928)
Degree Days  
Heating Degree Days 0 1  
Month to date heating degree days 0 1  
Since 1 June heating degree days 24 41  
Since 1 July heating degree days 0 6  
Cooling Degree Days 4 7  
Month to date cooling degree days 222 202  
Year to date cooling degree days 804 732  
Since 1 June cooling degree days 760 685  
Growing Degree Days 18 (Base 50)    
Moisture  
Dew Point 65 °F    
Average Humidity 92    
Maximum Humidity 100    
Minimum Humidity 78    
Precipitation  
Precipitation 0.97 in - 2.00 in (1935)
Sea Level Pressure  
Sea Level Pressure 30.01 in    
Wind  
Wind Speed 11 mph ()    
Max Wind Speed 16 mph    
Max Gust Speed 21 mph    
Visibility 9.1 miles    
Events Rain , Thunderstorm    
T = Trace of Precipitation, MM = Missing Value Source: Averaged Metar Reports

Daily Weather History Graph

Daily Weather History Graph

Search for Another Location

Airport or City:

Astronomy

Aug. 24, 2019 Rise Set
Actual Time 6:55 AM CDT 8:21 PM CDT
Civil Twilight 6:26 AM CDT 8:49 PM CDT
Nautical Twilight 5:51 AM CDT 9:24 PM CDT
Astronomical Twilight 5:15 AM CDT 10:00 PM CDT
Moon 12:48 AM CDT (8/24) 3:39 PM CDT (8/24)
Length of Visible Light 14h 23m
Length of Day
13h 26m
Last Quarter, 39% of the Moon is Illuminated
Aug 24
Last Quarter
Aug 30
New
Sep 5
First Quarter
Sep 13
Full
Sep 21
Last Quarter

Hourly Weather History & Observations

Time (CDT) Temp. Dew Point Humidity Pressure Visibility Wind Dir Wind Speed Gust Speed Precip Events Conditions
12:14 AM 68.0 °F 66.2 °F 94% 30.08 in 10.0 mi ESE 11.5 mph - N/A   Scattered Clouds
12:41 AM 69.8 °F 66.2 °F 88% 30.08 in 10.0 mi ESE 13.8 mph - N/A   Mostly Cloudy
12:56 AM 68.0 °F 66.0 °F 93% 30.04 in 10.0 mi ESE 13.8 mph - N/A   Overcast
1:56 AM 68.0 °F 66.0 °F 93% 30.04 in 10.0 mi SE 11.5 mph - N/A   Overcast
2:24 AM 68.0 °F 64.4 °F 88% 30.08 in 10.0 mi SE 11.5 mph 18.4 mph N/A   Overcast
2:56 AM 68.0 °F 64.9 °F 90% 30.03 in 10.0 mi ESE 12.7 mph - N/A   Overcast
3:56 AM 68.0 °F 64.9 °F 90% 30.03 in 10.0 mi SE 12.7 mph - N/A   Overcast
4:40 AM 66.2 °F 66.2 °F 100% 30.08 in 5.0 mi SSE 16.1 mph - 0.01 in Rain , Thunderstorm Light Thunderstorms and Rain
4:53 AM 66.2 °F 64.4 °F 94% 30.08 in 2.5 mi South 10.4 mph - 0.05 in Thunderstorm Overcast
4:56 AM 66.0 °F 64.9 °F 96% 30.03 in 3.0 mi SSE 9.2 mph - 0.06 in Thunderstorm Overcast
5:04 AM 66.2 °F 64.4 °F 94% 30.07 in 10.0 mi SE 9.2 mph - N/A   Overcast
5:50 AM 66.2 °F 66.2 °F 100% 30.05 in 10.0 mi SE 13.8 mph - 0.03 in   Overcast
5:56 AM 66.9 °F 66.0 °F 97% 30.01 in 10.0 mi SE 13.8 mph - 0.03 in   Overcast
6:03 AM 66.2 °F 66.2 °F 100% 30.05 in 10.0 mi SE 12.7 mph - 0.01 in   Overcast
6:30 AM 66.2 °F 66.2 °F 100% 30.05 in 8.0 mi SE 11.5 mph - 0.02 in Rain Light Rain
6:56 AM 66.9 °F 66.0 °F 97% 30.02 in 10.0 mi SSE 8.1 mph - 0.03 in   Overcast
7:07 AM 66.2 °F 66.2 °F 100% 30.06 in 9.0 mi SSE 10.4 mph - N/A   Overcast
7:56 AM 68.0 °F 66.9 °F 96% 30.01 in 9.0 mi South 10.4 mph - N/A   Overcast
8:39 AM 66.2 °F 62.6 °F 88% 30.04 in 9.0 mi SW 10.4 mph - 0.02 in Rain Light Rain
8:56 AM 63.0 °F 61.0 °F 93% 30.01 in 5.0 mi SW 13.8 mph - 0.18 in Rain Heavy Rain
9:56 AM 62.1 °F 61.0 °F 96% 30.01 in 9.0 mi SE 6.9 mph - 0.21 in Rain Light Rain
10:56 AM 62.1 °F 61.0 °F 96% 29.99 in 10.0 mi ESE 8.1 mph - 0.11 in Rain Light Rain
11:54 AM 62.6 °F 62.6 °F 100% 30.05 in 10.0 mi WSW 9.2 mph - 0.08 in Rain Rain
11:56 AM 63.0 °F 63.0 °F 100% 30.02 in 10.0 mi WSW 8.1 mph - 0.08 in Rain Light Rain
12:56 PM 64.0 °F 63.0 °F 96% 30.00 in 10.0 mi Calm Calm - 0.01 in   Scattered Clouds
1:56 PM 68.0 °F 64.0 °F 87% 29.98 in 10.0 mi SE 5.8 mph - N/A   Partly Cloudy
2:35 PM 69.8 °F 66.2 °F 88% 30.03 in 10.0 mi SE 10.4 mph - N/A   Mostly Cloudy
2:56 PM 71.1 °F 66.0 °F 84% 29.97 in 10.0 mi SE 15.0 mph - N/A   Scattered Clouds
3:07 PM 71.6 °F 66.2 °F 83% 30.01 in 10.0 mi SE 12.7 mph - N/A   Mostly Cloudy
3:45 PM 71.6 °F 66.2 °F 83% 30.01 in 10.0 mi SE 11.5 mph - N/A   Overcast
3:56 PM 73.0 °F 66.0 °F 79% 29.96 in 10.0 mi ESE 12.7 mph - N/A   Overcast
4:56 PM 73.9 °F 66.9 °F 79% 29.96 in 10.0 mi SE 12.7 mph - N/A   Overcast
5:12 PM 73.4 °F 66.2 °F 78% 29.98 in 10.0 mi SE 12.7 mph - N/A   Overcast
5:26 PM 75.2 °F 68.0 °F 78% 29.99 in 10.0 mi SE 12.7 mph - N/A   Overcast
5:56 PM 73.0 °F 68.0 °F 84% 29.94 in 10.0 mi ESE 12.7 mph - N/A   Mostly Cloudy
6:11 PM 71.6 °F 66.2 °F 83% 29.97 in 10.0 mi ESE 15.0 mph 20.7 mph N/A   Mostly Cloudy
6:56 PM 71.1 °F 66.9 °F 87% 29.92 in 10.0 mi SE 16.1 mph - N/A   Overcast
7:34 PM 69.8 °F 66.2 °F 88% 29.98 in 10.0 mi ESE 12.7 mph - 0.00 in Rain Light Rain
7:46 PM 69.8 °F 66.2 °F 88% 29.98 in 10.0 mi ESE 13.8 mph - 0.00 in   Mostly Cloudy
7:56 PM 69.1 °F 66.0 °F 90% 29.94 in 10.0 mi ESE 13.8 mph - 0.00 in   Mostly Cloudy
8:16 PM 69.8 °F 66.2 °F 88% 29.99 in 10.0 mi East 12.7 mph - N/A   Overcast
8:41 PM 68.0 °F 66.2 °F 94% 29.99 in 10.0 mi ESE 11.5 mph - 0.00 in Rain , Thunderstorm Light Rain
8:56 PM 66.9 °F 66.0 °F 97% 29.96 in 10.0 mi ESE 12.7 mph - 0.00 in   Overcast
9:19 PM 66.2 °F 66.2 °F 100% 29.99 in 10.0 mi ESE 11.5 mph - 0.00 in Rain , Thunderstorm Light Rain
9:56 PM 66.0 °F 64.9 °F 96% 29.98 in 5.0 mi ESE 12.7 mph - 0.11 in Rain , Thunderstorm Thunderstorms and Rain
10:13 PM 66.2 °F 64.4 °F 94% 30.00 in 5.0 mi East 11.5 mph - 0.10 in Rain , Thunderstorm Thunderstorms and Rain
10:34 PM 66.2 °F 64.4 °F 94% 29.99 in 8.0 mi ESE 8.1 mph - 0.14 in Rain Light Rain
10:56 PM 66.0 °F 64.9 °F 96% 29.95 in 10.0 mi East 5.8 mph - 0.14 in Rain Light Rain
11:56 PM 66.0 °F 64.9 °F 96% 29.93 in 9.0 mi East 12.7 mph - 0.01 in   Overcast